Location: Boca de Tacagua
(10.5333°N, 66.9833°W)
Time: 03:26:50
(UTC+00:00)

Cosmos 1536 - Pass Details

Date: 03 July 2022
Orbit: 536 x 556 km, 82.5° (Epoch: 14 August)

Event Time Altitude Azimuth Distance (km) Brightness Sun altitude
Exits shadow 08:44:35 34° 183° (S) 910 3.6 -19.8°
Maximum altitude 08:46:15 89° 86° (E) 554 2.7 -19.4°
Drops below altitude 10° 08:50:16 10° 4° (N) 1,826 5.9 -18.6°
Sets 08:52:26 0° 4° (N) 2,722 6.8 -18.1°
